Sidney, NE

12:02 PM MDT on September 26, 2016 (GMT -0600)
Sidney Municipal

Weather History for KSNY - January, 2014

Change the Weather History Date:

Thursday, January 16, 2014

  Actual Average Record
Temperature  
Mean Temperature - 29 °F  
Max Temperature - 42 °F 64 °F (1951)
Min Temperature - 16 °F -13 °F (1977)
Degree Days  
Heating Degree Days 36  
Month to date heating degree days 576  
Since 1 July heating degree days 2634 3123  
Cooling Degree Days 0  
Month to date cooling degree days 0  
Year to date cooling degree days 0  
Moisture  
Dew Point -    
Average Humidity    
Maximum Humidity    
Minimum Humidity    
Precipitation  
Precipitation 0.00 in 0.00 in 0.54 in (1978)
Month to date precipitation 0.04 0.10  
Year to date precipitation 0.04 0.10  
Sea Level Pressure  
Sea Level Pressure 30.16 in    
Wind  
Wind Speed 27 mph (NNW)    
Max Wind Speed 40 mph    
Max Gust Speed 58 mph    
Visibility 9 miles    
Events      
T = Trace of Precipitation, MM = Missing Value Source: NWS Daily Summary

Daily Weather History Graph

Daily Weather History Graph

Search for Another Location

Airport or City:

Trip Planner

Search our weather history database for the weather conditions in past years. The results will help you decide how hot, cold, wet, or windy it might be!

Date:

Astronomy

Jan. 16, 2014 Rise Set
Actual Time 7:14 AM MST 4:49 PM MST
Civil Twilight 6:44 AM MST 5:19 PM MST
Nautical Twilight 6:10 AM MST 5:53 PM MST
Astronomical Twilight 5:37 AM MST 6:26 PM MST
Moon 5:44 PM MST (1/16) 7:08 AM MST (1/16)
Length of Visible Light 10h 35m
Length of Day
9h 35m
Full, 100% of the Moon is Illuminated
Jan 16
Full
Jan 23
Last Quarter
Jan 30
New
Feb 6
First Quarter
Feb 14
Full

Hourly Weather History & Observations

Time (MST) Temp. Dew Point Humidity Pressure Visibility Wind Dir Wind Speed Gust Speed Precip Events Conditions
12:53 AM - - N/A% 30.00 in 10.0 mi NW 18.4 mph - N/A   Clear
1:53 AM - - N/A% 30.05 in 10.0 mi North 28.8 mph 42.6 mph N/A   Clear
2:53 AM - - N/A% 30.11 in 10.0 mi NNW 33.4 mph 40.3 mph N/A   Clear
3:53 AM - - N/A% 30.11 in 10.0 mi NNW 38.0 mph 44.9 mph N/A   Overcast
4:53 AM - - N/A% 30.13 in 10.0 mi NNW 31.1 mph 41.4 mph N/A   Overcast
5:53 AM - - N/A% 30.13 in 10.0 mi NW 33.4 mph 41.4 mph N/A   Overcast
6:53 AM - - N/A% 30.14 in 10.0 mi NW 28.8 mph 40.3 mph N/A   Overcast
7:53 AM - - N/A% 30.13 in 10.0 mi NW 26.5 mph 35.7 mph N/A   Overcast
8:53 AM - - N/A% 30.16 in 10.0 mi NW 33.4 mph 42.6 mph N/A   Overcast
9:53 AM - - N/A% 30.16 in 10.0 mi NNW 34.5 mph 44.9 mph N/A   Clear
10:44 AM - - N/A% 30.16 in 2.0 mi NNW 40.3 mph 56.4 mph N/A   Mostly Cloudy
10:53 AM - - N/A% 30.16 in 4.0 mi NNW 38.0 mph 52.9 mph N/A   Haze
11:16 AM - - N/A% 30.15 in 7.0 mi NNW 38.0 mph 46.0 mph N/A   Partly Cloudy
11:39 AM - - N/A% 30.15 in 3.0 mi NNW 40.3 mph 50.6 mph N/A   Mostly Cloudy
11:53 AM - - N/A% 30.15 in 6.0 mi NNW 35.7 mph 55.2 mph N/A   Haze
12:10 PM - - N/A% 30.14 in 7.0 mi NNW 41.4 mph 54.1 mph N/A   Partly Cloudy
12:53 PM - - N/A% 30.13 in 8.0 mi NNW 36.8 mph 48.3 mph N/A   Partly Cloudy
1:53 PM - - N/A% 30.14 in 10.0 mi NNW 29.9 mph 39.1 mph N/A   Partly Cloudy
2:53 PM - - N/A% 30.14 in 10.0 mi NNW 24.2 mph 34.5 mph N/A   Clear
3:53 PM - - N/A% 30.16 in 10.0 mi NNW 31.1 mph 43.7 mph N/A   Clear
4:53 PM - - N/A% 30.19 in 10.0 mi NNW 29.9 mph 40.3 mph N/A   Clear
5:53 PM - - N/A% 30.21 in 10.0 mi NNW 20.7 mph - N/A   Clear
6:53 PM - - N/A% 30.23 in 10.0 mi North 18.4 mph - N/A   Clear
7:53 PM - - N/A% 30.23 in 10.0 mi NNW 19.6 mph - N/A   Overcast
8:53 PM - - N/A% 30.24 in 10.0 mi NNW 12.7 mph - N/A   Overcast
9:53 PM - - N/A% 30.24 in 10.0 mi NNW 15.0 mph - N/A   Overcast
10:53 PM - - N/A% 30.22 in 10.0 mi NNW 12.7 mph - N/A   Overcast
11:53 PM - - N/A% 30.20 in 10.0 mi NNW 8.1 mph - N/A   Overcast